Wind_Speed
7 5 4 2 3 1 4 5 2 4 3 3 3 5 18 5 11 3 3 19 14 27 30 35 32 31 30 28 26 25 24 23 22 21 20 19 18 16 15 14 13 12 11 9 8 7 6 6 4
9 7 1 2 3 5 5 5 8 9 2 8 8 4 8 9 6 2 5 20 16 26 30 35 33 32 30 30 29 28 26 24 22 21 20 18 17 15 14 12 11 11 10 10 10 8 7 6 5
11 3 3 3 4 9 4 7 7 2 8 5 3 3 3 3 3 3 6 23 18 25 29 34 34 33 32 30 30 30 28 26 24 22 21 19 17 15 14 13 12 11 11 11 10 8 6 6 4
5 3 1 5 13 9 6 2 2 8 3 3 4 2 2 1 1 7 17 23 19 24 27 33 34 34 33 32 31 31 29 27 26 25 23 21 20 19 16 14 13 13 12 10 9 8 7 5 4
1 2 5 5 12 7 10 9 9 12 7 6 5 4 2 1 2 9 22 24 21 22 28 32 35 34 34 33 33 31 29 29 27 26 25 23 22 20 18 15 14 13 12 11 10 8 7 6 5
2 1 4 14 13 7 9 10 9 9 8 6 5 4 3 2 8 15 21 22 19 21 26 28 36 35 36 34 33 31 30 29 29 28 27 25 24 22 20 18 16 14 12 11 10 8 7 6 6
5 3 9 10 10 7 15 13 12 10 2 4 3 7 1 4 3 11 16 16 15 16 21 26 29 36 37 35 33 32 32 31 31 29 28 27 25 24 22 20 16 14 12 11 10 9 7 6 8
4 3 8 9 11 12 4 4 3 12 7 3 5 4 4 1 9 10 10 9 10 12 16 22 26 27 30 29 35 34 34 33 33 31 29 28 26 24 22 19 16 14 13 12 11 9 7 7 7
4 7 12 14 12 8 1 4 2 3 6 4 3 3 5 7 10 9 7 8 10 13 18 22 26 28 29 27 27 36 36 35 34 32 31 29 24 23 20 19 18 15 15 13 11 9 8 7 7
10 10 16 10 14 8 13 9 4 3 4 4 2 8 8 7 5 2 3 8 13 17 20 23 27 30 29 28 28 29 29 30 32 31 29 29 23 22 22 22 20 16 15 13 11 10 9 7 6
11 19 20 16 16 12 15 12 4 6 11 12 5 2 7 16 8 6 9 13 16 19 16 23 27 29 31 27 26 27 29 30 30 30 30 28 25 24 22 18 18 16 15 11 11 10 10 9 8
14 19 21 16 6 9 18 15 17 16 19 11 15 12 10 11 14 13 13 17 19 15 19 20 26 29 32 30 29 29 31 32 32 30 29 29 27 25 24 22 19 16 12 12 11 10 11 11 11
23 23 16 21 14 12 10 22 20 21 19 18 20 20 18 15 14 15 13 16 19 14 24 28 24 29 31 34 29 32 35 33 34 30 31 35 31 29 26 22 19 17 14 11 10 11 11 12 12
11 21 23 17 15 19 18 26 19 22 14 16 16 19 18 16 14 16 16 19 18 28 30 27 26 27 27 33 37 41 35 34 31 31 33 36 33 30 28 25 23 25 21 13 11 11 11 13 12
16 20 15 16 23 16 9 22 34 22 22 22 25 21 22 21 21 18 21 20 22 26 27 25 23 23 26 32 37 35 31 31 30 29 29 28 31 28 32 27 26 28 26 24 22 19 15 13 12
11 15 22 25 14 10 17 30 37 21 21 26 25 22 21 21 19 22 21 20 24 23 25 26 27 28 26 30 33 33 29 27 25 23 23 24 28 28 29 26 28 31 29 25 19 15 12 13 13
13 21 26 22 23 17 19 31 28 22 16 19 19 17 15 17 15 19 21 20 24 25 26 33 31 27 25 24 27 26 23 23 21 20 20 22 25 25 28 31 33 32 26 22 17 16 13 11 12
17 20 20 21 13 21 25 33 22 13 12 18 17 17 18 20 20 20 21 21 27 32 34 33 29 24 19 18 18 16 18 18 19 19 19 21 22 24 26 24 24 22 20 17 16 15 11 11 11
16 9 21 18 10 21 25 28 24 21 23 25 23 22 22 22 20 24 24 26 26 29 32 29 24 17 11 11 13 16 19 17 17 18 18 20 20 21 22 20 21 22 19 18 20 13 10 10 9
21 20 12 9 10 7 15 21 18 17 19 20 22 22 23 23 21 19 23 25 26 29 33 31 24 19 14 14 14 9 13 13 14 14 16 18 19 19 19 19 19 22 18 18 15 12 7 8 9
17 22 21 11 10 14 14 23 23 21 20 21 23 24 23 22 21 19 19 21 23 22 30 25 21 18 15 15 14 12 12 9 12 15 17 17 17 17 18 18 19 20 18 17 16 14 12 10 7
18 10 13 19 15 13 4 12 13 12 17 17 18 19 21 21 20 21 19 17 22 25 18 21 20 18 14 17 18 20 14 12 10 14 15 17 16 16 17 18 19 20 21 20 17 12 13 10 9
17 15 11 6 9 12 20 12 19 14 22 19 17 19 22 22 22 22 21 20 25 18 19 20 14 12 12 17 18 18 12 9 12 15 17 16 15 15 16 18 19 20 20 18 13 11 12 11 9
10 16 17 15 11 14 18 11 23 18 21 20 23 20 18 18 17 17 18 17 19 12 9 7 8 10 14 17 16 16 15 14 16 18 19 17 16 15 14 17 17 17 15 12 10 10 11 11 11
9 11 9 11 13 18 6 13 23 3 9 12 9 13 16 14 12 12 11 9 10 7 6 6 11 14 16 16 15 15 15 16 19 23 21 19 17 16 16 17 15 13 11 9 10 10 9 10 10
14 15 9 16 14 19 13 12 8 9 10 11 12 14 13 13 12 12 10 6 5 6 7 10 14 17 17 16 16 15 16 17 20 21 21 16 17 15 17 13 12 9 8 8 9 8 8 9 10
13 10 19 6 4 11 12 19 17 16 16 10 11 10 15 15 15 10 6 5 6 9 11 14 17 17 17 18 17 17 17 19 17 18 17 17 14 15 14 11 9 8 8 9 9 8 8 9 10
8 5 10 9 6 8 9 18 9 7 7 3 12 17 18 18 10 2 6 8 11 12 15 16 18 19 19 19 19 18 17 17 18 17 16 16 15 13 12 10 9 9 8 8 8 8 10 10 11
9 7 6 7 11 3 3 3 2 6 11 11 14 17 17 15 4 4 8 10 14 16 17 18 20 21 20 20 19 19 17 17 17 17 16 15 14 12 12 11 10 8 7 7 8 8 8 9 7
7 4 9 8 17 10 8 5 4 12 10 15 18 18 20 11 4 2 7 11 15 18 19 19 20 20 20 21 21 21 20 19 18 16 14 13 13 13 12 10 8 7 5 5 6 7 9 13 10
Wind_Direction
174 182 162 149 208 216 246 242 279 219 195 173 186 179 190 170 167 201 333 172 171 176 179 182 184 184 183 180 182 181 179 179 179 178 176 177 175 176 178 179 174 173 171 170 164 161 158 154 150
160 152 159 127 224 218 225 225 217 227 300 315 189 178 194 208 199 266 145 171 172 181 182 184 187 187 189 184 184 186 184 182 182 182 180 178 176 175 174 174 173 170 167 163 160 159 161 155 149
149 175 218 197 207 224 242 215 226 240 276 276 273 185 191 207 191 190 191 164 171 184 186 189 189 192 194 191 188 190 188 185 185 184 184 181 178 178 176 176 176 175 174 169 164 165 167 160 154
162 148 116 236 223 235 246 354 98 315 313 189 233 269 245 218 204 170 163 168 177 187 191 194 194 196 197 196 194 193 192 190 188 188 188 185 182 181 180 178 177 175 178 175 175 178 178 180 190
40 129 231 244 244 247 264 271 285 292 294 269 188 215 243 6 140 160 165 176 184 189 195 199 200 201 203 202 200 198 198 196 193 192 192 192 187 181 180 180 181 180 181 184 188 192 192 200 216
173 197 217 240 240 234 257 272 274 270 288 252 216 152 191 184 161 163 173 182 190 195 199 201 204 206 207 208 205 204 205 204 201 197 196 196 193 186 183 183 183 181 185 188 196 205 210 220 241
218 192 228 242 256 265 254 244 245 252 257 153 161 159 112 207 182 171 174 186 193 201 203 202 204 208 211 214 212 210 210 210 207 207 203 202 199 193 188 187 183 182 184 191 200 208 214 224 253
197 203 229 228 235 255 247 246 270 211 215 328 192 167 130 107 162 151 162 182 194 209 209 208 208 210 212 217 218 218 217 216 215 214 210 207 204 202 197 189 188 187 188 192 200 204 216 230 250
160 221 237 230 213 229 306 255 262 323 272 293 189 110 59 126 145 142 156 201 215 224 225 221 219 217 216 214 220 221 223 224 223 220 216 212 205 203 202 200 198 194 193 196 200 204 216 235 256
206 218 226 222 218 225 244 245 269 300 273 265 250 86 98 84 117 93 229 248 239 235 231 228 227 225 221 220 220 220 219 220 220 217 214 210 205 203 201 205 205 203 202 204 205 211 222 238 249
216 233 229 227 224 224 244 263 250 254 268 252 234 329 324 313 303 307 286 288 284 261 242 242 238 232 227 222 223 222 221 220 221 217 213 208 208 207 204 206 207 209 210 211 216 223 223 228 238
241 235 243 249 227 225 241 265 253 244 251 265 284 289 281 266 287 293 287 296 294 271 263 261 256 245 238 230 229 228 221 220 220 218 212 209 210 207 204 206 203 205 206 210 212 221 229 232 238
236 238 240 245 246 240 263 262 258 265 266 274 278 281 275 263 255 267 277 282 285 268 275 276 270 260 249 240 234 233 227 224 221 216 215 212 212 208 206 208 205 202 212 219 223 228 235 242 241
240 242 246 246 242 243 247 261 268 256 242 260 276 275 271 273 276 279 271 270 263 267 273 273 275 265 254 247 245 241 232 226 223 219 218 216 210 209 206 209 211 214 215 215 223 227 232 243 242
258 258 248 236 234 236 200 269 251 249 258 261 264 268 277 273 274 263 264 258 264 268 272 272 272 261 251 252 253 240 235 226 223 223 219 214 210 208 212 212 213 218 221 222 220 218 228 240 242
234 233 243 233 216 228 193 250 255 254 254 257 260 261 261 265 264 262 259 256 263 265 268 279 279 268 258 255 251 243 232 227 225 223 220 212 211 209 211 211 218 222 226 226 228 225 215 230 237
225 238 229 242 219 217 201 244 253 257 261 256 259 262 265 266 261 254 256 258 267 271 279 289 287 276 277 264 245 239 231 225 223 218 211 209 208 209 215 215 223 223 221 224 225 225 228 230 237
235 241 255 245 220 218 224 244 250 245 263 259 255 264 268 270 270 269 265 264 274 282 284 281 282 288 277 254 237 225 222 221 215 209 205 198 207 217 212 209 217 214 212 220 220 222 220 226 243
260 313 256 252 226 225 228 245 244 246 252 259 263 264 266 266 274 273 269 271 270 275 276 282 282 293 264 212 211 219 214 209 208 203 198 205 213 209 204 201 196 207 204 211 219 220 215 229 241
245 252 260 273 259 245 246 256 257 253 253 258 264 265 265 271 272 269 268 267 269 267 271 279 286 294 261 214 208 201 188 202 202 190 199 202 205 202 195 194 199 200 195 207 214 205 204 222 233
237 241 242 254 287 275 274 271 259 253 252 257 259 262 266 264 270 273 269 265 264 263 268 271 292 286 256 221 186 162 145 145 182 190 191 195 193 191 186 185 190 192 189 199 216 209 209 227 206
240 229 233 234 243 249 213 271 254 245 255 246 257 257 259 262 259 256 260 262 259 262 270 282 286 274 243 206 191 185 187 170 189 178 182 184 181 179 176 180 181 184 193 206 219 211 220 220 225
241 229 248 262 256 258 253 269 265 247 261 258 258 259 256 254 254 263 261 256 260 266 278 279 265 237 207 193 191 185 186 165 156 159 158 163 165 165 166 171 176 184 198 208 209 201 207 213 216
246 212 218 240 250 246 243 239 275 253 261 265 255 263 265 270 263 255 261 263 264 269 263 251 212 190 181 181 183 185 174 154 150 152 150 153 152 152 163 169 178 189 197 190 202 204 204 206 208
229 215 190 211 217 238 238 213 242 157 309 283 271 284 288 281 273 261 262 259 252 244 238 209 183 166 166 165 167 172 165 153 152 153 150 147 146 152 163 173 180 183 188 200 198 201 206 209 212
223 213 215 213 212 236 207 231 245 260 255 293 282 285 292 291 281 274 259 237 229 199 173 167 157 146 148 150 153 152 144 144 151 147 151 151 151 157 169 170 177 184 198 194 202 208 213 213 216
210 210 226 297 244 224 200 243 267 268 268 283 320 321 325 315 308 289 201 181 170 158 153 148 137 134 141 144 139 133 140 146 147 141 146 148 147 155 163 169 180 195 195 201 210 217 219 217 225
241 218 189 215 223 207 212 233 235 186 246 356 358 346 337 329 312 178 166 156 152 142 136 132 132 132 136 131 130 135 139 139 140 142 141 143 147 152 162 169 173 179 191 200 210 223 223 217 222
298 254 210 247 237 279 270 164 214 120 68 28 358 357 346 344 352 159 155 146 137 137 132 129 127 126 125 129 131 130 130 131 135 139 141 144 149 152 154 161 170 179 197 212 214 221 215 191 221
266 290 238 244 224 240 284 273 125 105 39 360 351 349 355 351 346 171 150 140 145 134 132 128 129 125 128 129 128 125 126 130 131 136 142 148 147 144 151 158 165 182 195 216 223 220 203 182 197
Height
787 789 790 789 799 800 796 784 772 768 764 752 750 752 752 747 758 773 743 744 746 749 755 760 764 769 771 774 778 781 784 787 789 791 792 795 796 797 799 800 800 800 801 803 804 806 808 809 810
786 789 790 789 802 803 783 772 773 759 749 746 748 750 754 752 739 739 742 743 747 750 754 759 763 767 771 772 774 779 781 783 788 790 792 794 796 797 799 801 801 802 802 803 804 805 807 808 808
786 789 789 789 795 794 781 767 759 757 750 749 746 740 745 743 739 737 739 741 746 750 754 758 761 765 768 771 772 776 779 781 785 788 791 793 795 797 798 799 801 802 804 804 805 806 808 808 809
787 788 790 795 790 783 775 761 760 756 746 743 742 748 737 736 735 736 737 741 745 749 753 758 760 763 767 768 771 774 777 780 782 786 789 791 792 794 796 797 799 801 803 804 805 807 807 808 809
787 786 793 796 788 778 765 761 758 756 752 746 741 746 742 736 735 737 738 740 743 748 753 755 758 762 766 767 770 772 775 778 780 783 786 789 789 791 794 796 799 800 801 803 805 806 806 807 808
790 787 797 794 784 771 761 754 753 750 742 743 744 743 739 735 735 734 738 741 743 746 750 753 757 760 764 766 769 771 774 776 779 781 782 785 787 788 790 793 796 798 800 801 804 805 805 806 807
784 787 787 786 781 773 759 750 752 747 744 741 733 743 736 735 736 736 738 742 744 747 748 751 755 758 761 765 768 769 771 774 777 779 780 784 786 787 787 789 793 795 797 800 801 802 803 804 805
777 780 785 779 779 772 754 749 741 744 744 733 732 744 742 735 737 738 739 744 744 747 748 750 753 756 760 764 765 767 769 771 773 776 779 781 784 787 787 789 791 792 794 796 798 800 802 803 803
775 783 780 773 775 765 752 753 742 740 742 737 731 731 733 735 738 739 741 744 744 745 745 747 750 753 755 759 762 763 765 768 770 774 777 779 782 785 788 789 789 790 791 793 795 797 799 801 802
771 771 766 753 753 757 750 751 747 747 746 741 735 735 738 739 738 736 739 741 743 742 741 743 745 747 751 755 756 758 761 764 765 769 772 776 780 782 783 785 787 788 790 792 793 796 799 800 802
762 759 748 745 746 749 749 748 746 749 748 737 737 739 737 736 737 736 735 736 737 738 739 739 739 741 744 749 752 753 756 758 761 764 767 772 774 777 780 784 786 787 789 792 793 796 797 798 800
764 749 746 743 747 749 750 744 743 742 736 732 733 736 735 736 734 732 733 732 732 733 732 735 735 738 738 742 744 745 747 749 752 756 761 767 769 772 775 779 781 785 789 789 791 794 796 796 797
755 745 744 744 746 747 746 739 741 733 727 727 729 729 729 730 731 730 730 729 729 731 730 730 731 731 731 734 738 737 738 741 743 749 752 755 760 764 770 774 778 781 785 788 789 791 793 795 795
741 745 744 742 744 746 750 737 740 720 728 725 724 724 725 725 722 723 725 725 726 726 726 726 726 726 726 727 728 727 730 732 737 740 742 746 752 756 763 768 772 775 776 782 785 787 789 791 792
748 753 746 741 741 742 745 746 723 725 722 726 720 720 715 714 715 716 719 720 720 721 721 721 721 721 720 719 719 720 722 725 728 733 736 741 746 751 756 763 766 769 771 771 772 775 779 786 788
752 751 750 729 739 734 744 740 699 713 717 714 711 710 709 707 709 712 713 714 714 715 715 714 714 714 712 711 711 713 715 718 723 728 732 737 741 745 751 757 759 764 767 770 774 776 774 779 783
747 738 733 732 722 733 738 719 706 706 708 704 704 704 704 702 703 706 706 706 707 707 707 706 705 705 702 704 705 706 711 714 718 722 726 730 736 741 745 749 754 760 764 769 772 773 774 776 779
743 744 734 729 724 729 729 711 711 705 707 704 703 703 700 698 696 699 699 699 699 699 699 697 697 695 695 698 700 702 706 708 712 716 721 726 730 734 739 744 751 757 762 767 769 770 771 773 775
740 741 733 728 720 722 720 711 709 708 706 703 700 699 697 693 691 691 692 692 692 691 690 690 688 688 689 692 697 698 699 704 708 711 715 721 725 729 735 739 745 753 757 761 764 767 769 771 772
745 745 743 736 727 728 719 714 710 708 703 700 698 694 693 687 684 685 686 684 683 682 680 680 680 679 681 685 688 692 695 699 705 708 712 717 721 725 731 738 743 746 751 757 760 764 766 768 769
739 741 740 741 731 725 726 717 709 699 697 694 689 686 683 679 679 678 675 676 675 674 672 672 673 673 675 678 683 687 692 696 702 705 708 714 718 723 729 733 738 745 749 754 758 760 762 765 767
738 733 732 734 738 734 720 715 695 692 691 689 686 682 676 674 673 670 667 666 666 665 667 666 667 668 670 673 678 680 683 690 696 700 706 711 716 722 727 730 737 743 747 751 754 757 759 762 763
733 730 732 734 734 734 724 727 690 685 682 678 676 673 670 664 662 661 660 658 658 660 660 660 660 662 665 669 674 678 683 688 693 699 705 711 716 721 725 731 737 740 745 748 751 754 756 758 759
724 725 729 732 733 734 723 728 680 680 672 670 666 661 659 656 655 655 653 653 653 654 655 655 656 659 663 667 671 676 681 685 692 698 705 711 715 719 726 731 735 739 743 746 749 751 752 754 756
726 728 730 738 735 724 710 722 684 665 670 669 664 658 654 650 648 647 646 647 647 648 652 654 655 657 661 665 670 676 681 684 692 698 704 709 714 719 725 730 734 738 741 743 746 748 750 752 753
720 720 718 724 715 708 713 708 681 665 660 662 658 655 651 646 643 642 640 642 645 647 650 652 654 656 661 666 673 677 680 687 695 700 703 709 713 719 724 729 733 736 739 742 744 746 748 749 750
715 719 708 716 706 701 697 686 672 668 661 658 656 653 648 643 640 637 637 642 644 647 649 652 654 658 664 670 674 678 684 690 696 701 706 710 714 720 724 728 732 735 738 740 742 744 745 747 748
715 702 717 713 712 707 686 686 672 666 661 662 658 654 647 641 637 637 640 643 646 648 652 654 658 662 668 671 676 682 687 692 696 702 707 712 716 720 725 728 732 735 737 738 739 741 742 743 744
726 721 703 701 698 695 688 671 660 664 667 667 662 655 650 645 641 644 644 645 648 651 654 658 662 666 671 675 680 685 691 695 700 705 709 713 717 721 725 729 732 733 735 735 736 738 739 740 741
720 717 711 704 700 697 697 682 661 664 666 667 662 655 648 652 649 647 647 647 650 652 657 661 666 670 675 680 684 689 694 699 703 707 711 715 719 722 726 729 731 732 733 734 734 735 736 736 737